189  
AXUS43 KGID 311402  
MISGRI  
 
GID CWA HOURLY WEATHER ROUNDUP  
NATIONAL WEATHER SERVICE HASTINGS NE  
900 AM CDT FRI OCT 31 2014  
 
NOTE: "FAIR" INDICATES FEW OR NO CLOUDS BELOW 12,000 FEET WITH NO  
SIGNIFICANT WEATHER AND/OR OBSTRUCTIONS TO VISIBILITY.  
   
..SOUTH CENTRAL NEBRASKA
 
 
 
CITY SKY/WX TMP DP RH WIND PRES REMARKS  
GRAND ISLAND PTCLDY 27 19 72 N7 30.57R WCI 19  
HASTINGS PTCLDY 28 18 66 N7 30.56R WCI 21  
KEARNEY MOCLDY 28 18 64 NE9 30.56R WCI 20  
ORD MOCLDY 22 18 85 NW6 30.56R WCI 14  
YORK CLEAR 25 19 80 N12 30.56R WCI 14  
AURORA PTCLDY 26 19 73 N9 30.56R WCI 17  
LEXINGTON MOCLDY 29 24 82 NE6 30.55R WCI 22  
HOLDREGE CLOUDY 28 22 77 CALM 30.54S  
HEBRON CLEAR 28 19 68 N9 30.56R WCI 20  
   
..NEBRASKA PANHANDLE
 
 
 
CITY SKY/WX TMP DP RH WIND PRES REMARKS  
CHADRON CLOUDY 32 29 88 S12 30.39F WCI 23  
ALLIANCE CLOUDY 29 28 96 S14 30.42S FOG WCI 18  
SCOTTSBLUFF PTCLDY 29 28 96 E14 30.40R WCI 18  
SIDNEY FOG 30 29 96 S12 30.42S VSB 1 WCI 20  
   
..WESTERN AND NORTH CENTRAL NEBRASKA
 
 
 
CITY SKY/WX TMP DP RH WIND PRES REMARKS  
VALENTINE PTCLDY 21 18 88 S5 30.52R WCI 15  
AINSWORTH PTCLDY 20 18 88 S3 30.52S  
ONEILL PTCLDY 20 19 97 NW3 30.56R  
BROKEN BOW CLOUDY 28 21 75 NE6 30.53S WCI 22  
IMPERIAL FOG 28 26 92 E7 30.50S VSB 1/2 WCI 21  
NORTH PLATTE CLOUDY 30 24 78 E6 30.52R WCI 24  
MCCOOK CLOUDY 31 26 82 NE6 30.54R WCI 25  
   
..EASTERN NEBRASKA
 
 
 
CITY SKY/WX TMP DP RH WIND PRES REMARKS  
NORFOLK PTCLDY 25 20 81 NW6 30.57R WCI 18  
SO SIOUX CITY CLEAR 26 20 77 NW8 30.59R WCI 18  
TEKAMAH SUNNY 29 20 69 N10 30.58R WCI 20  
ALBION PTCLDY 22 18 83 NW3 30.56S  
OMAHA EPPLEY SUNNY 29 21 72 N15 30.57R WCI 18  
OFFUTT AFB SUNNY 30 20 67 N10 30.56R WCI 21  
MILLARD SUNNY 30 21 69 N7 30.57R WCI 23  
LINCOLN SUNNY 28 20 71 N13 30.58R WCI 17  
NEBRASKA CITY SUNNY 30 19 62 N7 30.55R WCI 23  
BEATRICE SUNNY 28 22 77 N8 30.55R WCI 20  
FALLS CITY SUNNY 32 20 61 N12 30.53R WCI 23  
   
..NORTHERN KANSAS
 
 
 
CITY SKY/WX TMP DP RH WIND PRES REMARKS  
GOODLAND CLOUDY 30 29 96 E6 30.49R FOG WCI 24  
HILL CITY CLOUDY 33 26 75 NE12 30.56R WCI 24  
NORTON CLOUDY 34 25 69 N6 30.55R WCI 29  
PHILLIPSBURG PTCLDY 34 27 75 N3 30.57R  
SMITH CENTER PTCLDY 28 21 74 NE10 30.57 WCI 19  
BELOIT CLEAR 30 21 69 N8 30.58R WCI 23  
HAYS CLOUDY 34 23 64 NE14 30.54R WCI 24  
RUSSELL PTCLDY 32 25 75 N13 30.53R WCI 22  
CONCORDIA SUNNY 30 21 69 N12 30.55R WCI 20  
SALINA CLOUDY 35 26 69 N22 30.55R WCI 23  
TOPEKA SUNNY 35 24 64 N21G29 30.51R WCI 24  
 
CLICK HERE TO GO TO PREVIOUS BULLETINS.

The Nexlab NE Page
The Nexlab KS Page Main Text Page